Погода в Дмитрове

Россия / Брянская область     53°03′47″N   33°34′17″E
темп.,
°C
ветер,
м/с
пор.,
м/с
влажн.,
%
обл.,
%
осадки,
мм/ч
давл.,
гПа
погр.,
м
23 апреля, пт
пт2300:00+8ю499279 0.5 1015222
03:00+7ю5129453 0.8 1014323
06:00+7ю5129599 0.8 1014397
09:00+8зюз4695100 2.7 1014548
12:00+4зсз3593100 5.5 1015368
15:00+10з4655100 5.8 10141714
18:00+8з5664100 0.0 1014891
21:00+6зюз3669100 0.0 1014125
24 апреля, сб
сб2400:00+5з3678100 0.1 1013190
03:00+2з37855 0.1 1012151
06:00+1зюз39905 0.0 1012247
09:00+4з676989 0.0 1012951
12:00+6з785797 0.9 10111795
15:00+4зсз9128499 2.3 10131178
18:00+4зсз8117070 0.7 10141393
21:00+2з613785 0.7 1015539
25 апреля, вс
вс2500:000зюз512835 0.0 1016298
03:00−1зюз411855 0.0 1016281
06:00−1зюз411855 0.0 1016316
09:00+4зюз466126 0.0 1015712
12:00+8юз61050100 0.1 10132104
15:00+4зсз578993 1.5 1013735
18:00+6з58618 0.6 10131679
21:00+1зюз38805 0.6 1015169
26 апреля, пн
пн2600:000юз310875 0.0 1015201
03:00−1зюз39915 0.0 1015203
06:00−1зюз37905 0.0 1015195
09:00+4з47655 0.0 1014879
12:00+7з5745100 0.0 10142169
15:00+7з4546100 0.1 10131905
18:00+6юз3455100 0.2 10121098
21:00+2юз3476100 0.6 101268
27 апреля, вт
вт2700:00+1зюз378129 0.0 1012143
03:00−1зюз388717 0.0 1012160
06:00−1юз388925 0.0 1012207
09:00+4зюз577122 0.0 1012821
12:00+7з6755100 0.8 10121845
15:00+7зсз565595 2.1 10121686
18:00+7зсз46595 0.8 10121357
21:00+2з22735 0.9 101415